CLF2 EGNS-EGAC

Flight info

Callsign CLF2
Flight time 0h 36m
Altitude 3000
Route IOM DCT NELBO
Aircraft C25C/M-SDE2E3FGHRWXY/LB1

Departure

Time 2026-04-28 15:34
Airport Isle of Man Airport (EGNS)

Arrival

Time 2026-04-28 16:10
Airport George Best Belfast City Airport (EGAC)
Time Latitude Longitude Altitude Speed Heading
2026-04-28 15:05 54.08746 -4.63237 30 ft 0 kts 45°
2026-04-28 15:30 54.08747 -4.63235 30 ft 2 kts 52°
2026-04-28 15:30 54.08710 -4.63191 30 ft 10 kts 167°
2026-04-28 15:30 54.08629 -4.63201 30 ft 14 kts 200°
2026-04-28 15:30 54.08536 -4.63289 30 ft 16 kts 217°
2026-04-28 15:31 54.08440 -4.63391 30 ft 16 kts 191°
2026-04-28 15:31 54.08327 -4.63355 30 ft 15 kts 167°
2026-04-28 15:31 54.08317 -4.63351 30 ft 0 kts 166°
2026-04-28 15:32 54.08298 -4.63343 30 ft 11 kts 167°
2026-04-28 15:32 54.08232 -4.63317 29 ft 9 kts 158°
2026-04-28 15:32 54.08219 -4.63257 29 ft 0 kts 79°
2026-04-28 15:32 54.08221 -4.63240 29 ft 0 kts 79°
2026-04-28 15:34 54.08227 -4.63195 30 ft 17 kts 76°
2026-04-28 15:34 54.08273 -4.62822 32 ft 88 kts 78°
2026-04-28 15:34 54.08471 -4.61250 288 ft 163 kts 80°
2026-04-28 15:34 54.08694 -4.59193 1063 ft 189 kts 82°
2026-04-28 15:35 54.08613 -4.56914 2049 ft 196 kts 106°
2026-04-28 15:35 54.06319 -4.53390 4032 ft 227 kts 148°
2026-04-28 15:35 54.05435 -4.50939 4197 ft 258 kts 98°
2026-04-28 15:36 54.05807 -4.48137 5462 ft 241 kts 61°
2026-04-28 15:36 54.07067 -4.46196 6010 ft 256 kts 27°
2026-04-28 15:36 54.08908 -4.45703 5989 ft 284 kts 353°
2026-04-28 15:36 54.10678 -4.47025 5987 ft 262 kts 320°
2026-04-28 15:37 54.11659 -4.49329 5992 ft 230 kts 298°
2026-04-28 15:37 54.12378 -4.51698 5871 ft 222 kts 296°
2026-04-28 15:37 54.12960 -4.54118 5737 ft 220 kts 288°
2026-04-28 15:37 54.13270 -4.55800 5650 ft 219 kts 286°
2026-04-28 15:38 54.13707 -4.58247 5564 ft 216 kts 286°
2026-04-28 15:38 54.14136 -4.60679 5558 ft 211 kts 286°
2026-04-28 15:38 54.14690 -4.63825 5549 ft 207 kts 286°
2026-04-28 15:38 54.15101 -4.66161 5535 ft 207 kts 286°
2026-04-28 15:39 54.15523 -4.68635 5546 ft 228 kts 284°
2026-04-28 15:39 54.15815 -4.70444 5550 ft 240 kts 287°
2026-04-28 15:39 54.16492 -4.73142 5549 ft 256 kts 299°
2026-04-28 15:39 54.17524 -4.75663 5552 ft 267 kts 308°
2026-04-28 15:40 54.18697 -4.78191 5558 ft 275 kts 307°
2026-04-28 15:40 54.19842 -4.80845 5565 ft 280 kts 305°
2026-04-28 15:40 54.20981 -4.83587 5567 ft 285 kts 304°
2026-04-28 15:40 54.22122 -4.86317 5567 ft 270 kts 305°
2026-04-28 15:41 54.23165 -4.88780 5561 ft 242 kts 305°
2026-04-28 15:41 54.24117 -4.91033 5550 ft 228 kts 305°
2026-04-28 15:41 54.25028 -4.93208 5547 ft 222 kts 305°
2026-04-28 15:41 54.25920 -4.95325 5548 ft 217 kts 305°
2026-04-28 15:42 54.26780 -4.97380 5550 ft 213 kts 305°
2026-04-28 15:42 54.27638 -4.99426 5550 ft 210 kts 304°
2026-04-28 15:42 54.28498 -5.01473 5550 ft 213 kts 305°
2026-04-28 15:42 54.29367 -5.03554 5549 ft 216 kts 305°
2026-04-28 15:43 54.30250 -5.05664 5549 ft 219 kts 304°
2026-04-28 15:43 54.31141 -5.07792 5552 ft 220 kts 305°
2026-04-28 15:43 54.32033 -5.09935 5551 ft 222 kts 305°
2026-04-28 15:43 54.32935 -5.12089 5554 ft 223 kts 304°
2026-04-28 15:44 54.33839 -5.14259 5554 ft 223 kts 305°
2026-04-28 15:44 54.34744 -5.16436 5556 ft 224 kts 304°
2026-04-28 15:44 54.35641 -5.18585 5557 ft 224 kts 304°
2026-04-28 15:44 54.36546 -5.20766 5558 ft 225 kts 305°
2026-04-28 15:45 54.37456 -5.22953 5559 ft 225 kts 304°
2026-04-28 15:45 54.38365 -5.25142 5560 ft 225 kts 305°
2026-04-28 15:45 54.39272 -5.27335 5561 ft 225 kts 304°
2026-04-28 15:45 54.40188 -5.29535 5561 ft 226 kts 304°
2026-04-28 15:46 54.41101 -5.31749 5477 ft 229 kts 305°
2026-04-28 15:46 54.42032 -5.33996 5228 ft 239 kts 304°
2026-04-28 15:46 54.43012 -5.36368 4918 ft 248 kts 305°
2026-04-28 15:46 54.44028 -5.38832 4583 ft 255 kts 304°
2026-04-28 15:47 54.45070 -5.41351 4239 ft 261 kts 305°
2026-04-28 15:47 54.46129 -5.43932 3887 ft 265 kts 304°
2026-04-28 15:47 54.47191 -5.46503 3534 ft 268 kts 304°
2026-04-28 15:47 54.48275 -5.49136 3176 ft 271 kts 305°
2026-04-28 15:48 54.49327 -5.51746 2819 ft 255 kts 301°
2026-04-28 15:48 54.49867 -5.54486 2601 ft 233 kts 274°
2026-04-28 15:48 54.49703 -5.57172 2558 ft 223 kts 253°
2026-04-28 15:48 54.49270 -5.59736 2551 ft 223 kts 254°
2026-04-28 15:49 54.48835 -5.62295 2548 ft 223 kts 253°
2026-04-28 15:49 54.48397 -5.64871 2465 ft 226 kts 253°
2026-04-28 15:49 54.47935 -5.67489 2394 ft 229 kts 249°
2026-04-28 15:49 54.47217 -5.69935 2364 ft 229 kts 243°
2026-04-28 15:50 54.46538 -5.72368 2363 ft 228 kts 244°
2026-04-28 15:50 54.45838 -5.74809 2362 ft 226 kts 243°
2026-04-28 15:50 54.45166 -5.77251 2360 ft 225 kts 250°
2026-04-28 15:50 54.44931 -5.79912 2351 ft 226 kts 264°
2026-04-28 15:51 54.44771 -5.82598 2353 ft 225 kts 263°
2026-04-28 15:51 54.44602 -5.85262 2356 ft 224 kts 263°
2026-04-28 15:51 54.44441 -5.87911 2353 ft 222 kts 268°
2026-04-28 15:51 54.44710 -5.90480 2350 ft 221 kts 283°
2026-04-28 15:52 54.45063 -5.93052 2350 ft 221 kts 282°
2026-04-28 15:52 54.45412 -5.95617 2341 ft 220 kts 282°
2026-04-28 15:52 54.45784 -5.98150 2346 ft 217 kts 292°
2026-04-28 15:52 54.46839 -5.99887 2348 ft 215 kts 338°
2026-04-28 15:53 54.48292 -6.00243 2351 ft 212 kts 356°
2026-04-28 15:53 54.49764 -6.00408 2351 ft 211 kts 355°
2026-04-28 15:53 54.51168 -5.99847 2353 ft 206 kts 28°
2026-04-28 15:53 54.52280 -5.98625 2136 ft 176 kts 34°
2026-04-28 15:54 54.53208 -5.97537 1926 ft 142 kts 34°
2026-04-28 15:54 54.53957 -5.96639 1737 ft 124 kts 34°
2026-04-28 15:54 54.54649 -5.95814 1576 ft 121 kts 35°
2026-04-28 15:54 54.55355 -5.94966 1419 ft 126 kts 34°
2026-04-28 15:55 54.56094 -5.94086 1261 ft 132 kts 35°
2026-04-28 15:55 54.56834 -5.93201 1083 ft 131 kts 34°
2026-04-28 15:55 54.57581 -5.92301 909 ft 131 kts 34°
2026-04-28 15:55 54.58328 -5.91406 736 ft 130 kts 34°
2026-04-28 15:56 54.59075 -5.90518 563 ft 131 kts 34°
2026-04-28 15:56 54.59823 -5.89619 388 ft 131 kts 34°
2026-04-28 15:56 54.60568 -5.88726 215 ft 130 kts 34°
2026-04-28 15:56 54.61300 -5.87875 42 ft 117 kts 34°
2026-04-28 15:57 54.61969 -5.87064 146 ft 128 kts 36°
2026-04-28 15:57 54.62721 -5.86109 449 ft 139 kts 36°
2026-04-28 15:57 54.63597 -5.85457 864 ft 135 kts
2026-04-28 15:57 54.64461 -5.85789 1353 ft 128 kts 326°
2026-04-28 15:58 54.65028 -5.86974 1733 ft 131 kts 300°
2026-04-28 15:58 54.65235 -5.88503 2073 ft 134 kts 263°
2026-04-28 15:58 54.64860 -5.89950 2405 ft 137 kts 237°
2026-04-28 15:58 54.64276 -5.91331 2564 ft 147 kts 231°
2026-04-28 15:59 54.63616 -5.92700 2745 ft 150 kts 229°
2026-04-28 15:59 54.62881 -5.94082 2689 ft 161 kts 226°
2026-04-28 15:59 54.62094 -5.95428 2516 ft 154 kts 223°
2026-04-28 15:59 54.61317 -5.96553 2515 ft 147 kts 217°
2026-04-28 16:00 54.60470 -5.97560 2390 ft 150 kts 212°
2026-04-28 16:00 54.59579 -5.98484 2205 ft 150 kts 212°
2026-04-28 16:00 54.58628 -5.99446 1978 ft 162 kts 208°
2026-04-28 16:00 54.57658 -6.00327 1822 ft 155 kts 209°
2026-04-28 16:01 54.56699 -6.01202 1634 ft 153 kts 208°
2026-04-28 16:01 54.55786 -6.02031 1628 ft 143 kts 209°
2026-04-28 16:01 54.54936 -6.02877 1644 ft 140 kts 210°
2026-04-28 16:01 54.54043 -6.03591 1608 ft 142 kts 205°
2026-04-28 16:02 54.53174 -6.04323 1607 ft 140 kts 209°
2026-04-28 16:02 54.52308 -6.05109 1593 ft 141 kts 210°
2026-04-28 16:02 54.51458 -6.05954 1602 ft 141 kts 213°
2026-04-28 16:02 54.50630 -6.06847 1611 ft 139 kts 214°
2026-04-28 16:03 54.49790 -6.07685 1595 ft 139 kts 210°
2026-04-28 16:03 54.48953 -6.08469 1666 ft 139 kts 209°
2026-04-28 16:03 54.48072 -6.09248 1564 ft 143 kts 207°
2026-04-28 16:03 54.47197 -6.09994 1579 ft 141 kts 207°
2026-04-28 16:04 54.46310 -6.10710 1573 ft 140 kts 206°
2026-04-28 16:04 54.45433 -6.11492 1612 ft 147 kts 210°
2026-04-28 16:04 54.44530 -6.12252 1854 ft 145 kts 191°
2026-04-28 16:04 54.43578 -6.11762 2027 ft 150 kts 138°
2026-04-28 16:05 54.43216 -6.10136 2258 ft 149 kts 86°
2026-04-28 16:05 54.43782 -6.08684 2399 ft 156 kts 34°
2026-04-28 16:05 54.44694 -6.07681 2622 ft 156 kts 34°
2026-04-28 16:05 54.45620 -6.06565 2516 ft 159 kts 34°
2026-04-28 16:06 54.46460 -6.05570 2383 ft 138 kts 34°
2026-04-28 16:06 54.47234 -6.04649 2226 ft 134 kts 34°
2026-04-28 16:06 54.48003 -6.03717 2089 ft 136 kts 34°
2026-04-28 16:06 54.48857 -6.02707 1976 ft 166 kts 34°
2026-04-28 16:07 54.49857 -6.01515 1886 ft 180 kts 34°
2026-04-28 16:07 54.50899 -6.00267 1801 ft 184 kts 34°
2026-04-28 16:07 54.52825 -5.97981 1572 ft 148 kts 34°
2026-04-28 16:08 54.53670 -5.96966 1552 ft 149 kts 34°
2026-04-28 16:08 54.54532 -5.95942 1552 ft 155 kts 34°
2026-04-28 16:08 54.55455 -5.94833 1405 ft 168 kts 34°
2026-04-28 16:09 54.57337 -5.92587 963 ft 154 kts 34°
2026-04-28 16:09 54.58141 -5.91622 766 ft 129 kts 34°
2026-04-28 16:09 54.58844 -5.90785 600 ft 121 kts 35°
2026-04-28 16:10 54.60237 -5.89150 295 ft 120 kts 38°
2026-04-28 16:10 54.60894 -5.88355 100 ft 108 kts 36°
2026-04-28 16:10 54.61613 -5.87483 13 ft 0 kts 30°